Location: Unspecified
(43.4680°N, 87.1740°E)
Time: 17:19:51
(UTC+00:00)

Cosmos 1825 Rocket - Pass Details

Date: 17 January 2020
Orbit: 604 x 630 km, 82.5° (Epoch: 26 February)

Event Time Altitude Azimuth Distance (km) Brightness Sun altitude
Rises 13:24:00 0° 196° (SSW) 2,879 7.3 -25.3°
Reaches altitude 10° 13:26:15 10° 200° (SSW) 1,974 6.4 -25.7°
Maximum altitude 13:30:34 60° 280° (W) 707 4.0 -26.5°
Enters shadow 13:31:00 56° 308° (NW) 730 4.0 -26.6°
